sat.trackr.live / text

‹ back to catalog

STARLINK-38060

NORAD 69716 · 2026-147N

PAYLOAD ACTIVE UNKNOWN

§ Identity

Operator
Country
US
Launch date
2026-06-28
Launch site
AFWTR
Launch vehicle
Mass (kg)
RCS (m²)

Purposes: comms

External: N2YO · Heavens-Above · Gunter

§ Orbital elements

Epoch: 2026-09-19T01:30:21.414240Z

Period
93.91 min
Inclination
97.2848°
Eccentricity
0.0000895
Mean motion
15.33446514 rev/d
Perigee alt
464.9 km
Apogee alt
466.2 km
Semi-major
6,843.7 km
B*
3.8424e-4
RAAN
298.4458°
Arg perigee
122.0620°
Mean anomaly
238.0710°
Rev number
1,401

§ Raw data

STARLINK-380601 69716U 26147N   26262.06274785  .00012350  00000+0  38424-3 0  99902 69716  97.2848 298.4458 0000895 122.0620 238.0710 15.33446514 14017

JSON: /api/v1/satellites/69716 · /tle

For live sub-satellite position, see the globe view (requires WebGL).

§ Visibility from observer

Set your observer location to see the next 7 days of passes ≥ 10°. The values pass through the URL so the page stays shareable.

No JS? Fill the form by hand. The geolocation button needs JavaScript.